Flag for India Weather past 2 weeks in Allahabad, Uttar Pradesh, India

Now
86 °F

Haze.


Feels Like: 89 °F
Forecast: 82 / 105 °F
Wind: 9 mph from East

Location: Varanasi / Babatpur

Current Time: Apr 20, 2015 at 1:10:38 AM

Latest Report: Apr 19, 2015 at 11:00 PM


Visibility: 2 mi

Pressure: 29.74 "Hg

Humidity: 55%

Dew point: 68 °F

Location of AllahabadLocation

Historic Weather in Allahabad — Graph

°F

Allahabad temperature yesterday

Maximum temperature yesterday: 104 °F (at 1:00 PM)
Minimum temperature yesterday: 75 °F (at 6:00 AM)
Average temperature yesterday: 89 °F

Past Weeks' High & Low Weather Summary

 TemperatureHumidityPressure
High104 °F (Apr 19, 1:00 PM)100% (Apr 12, 11:00 PM)30.12 "Hg (Apr 12, 11:00 PM)
Low68 °F (Apr 8, 5:00 AM)18% (Apr 7, 3:00 PM)29.47 "Hg (Apr 10, 4:00 AM)
Average83 °F52%29.81 "Hg
* Reported Apr 4 11:00 PM — Apr 19 11:00 PM, Allahabad, Weather by CustomWeather, © 2015

Note: Actual official high and low records may vary slightly from our data, if they occured in-between our weather recording intervals... More about our weather records

Advertising

Allahabad weather history for previous 24 hours

 ConditionsComfort  
Time TempWeatherWind HumidityBarometerVisibility
11:00 PM
Sun, Apr 19
86 °FHaze.9 mph55%29.74 "Hg2 mi
10:00 PM90 °FHaze.7 mph46%29.74 "Hg2 mi
9:00 PM91 °FHaze.6 mph44%29.71 "Hg2 mi
8:00 PM93 °FHaze.5 mph41%29.68 "Hg2 mi
7:00 PM95 °FHaze.2 mph44%29.65 "Hg2 mi
6:00 PM97 °FHaze.5 mph42%29.62 "Hg2 mi
5:00 PM100 °FHaze.6 mph40%29.62 "Hg3 mi
4:00 PM102 °FHaze.7 mph35%29.62 "Hg3 mi
3:00 PM104 °FHaze.8 mph33%29.62 "Hg3 mi
1:00 PM104 °FHaze.3 mph33%29.68 "Hg2 mi
10:00 AM90 °FHaze.No wind52%29.71 "Hg1 mi
9:00 AM84 °FHaze.1 mph66%29.71 "Hg1 mi
8:00 AM79 °FHaze.2 mph70%29.68 "Hg1 mi
7:00 AM77 °FHaze.3 mph74%29.65 "Hg1 mi
6:00 AM75 °FHaze.2 mph83%29.62 "Hg1 mi
5:00 AM77 °FHaze.2 mph69%29.59 "Hg1 mi
4:00 AM77 °FHaze.3 mph65%29.59 "Hg2 mi
Weather by CustomWeather, © 2015

See weather overviewHow to use our weather pages